Terminal Aerodrome Forecast
Issued by NWS

Home | Current Version | Previous Version | Text Only | Print | Product List | Glossary On
Versions: 1 2 3 4 5 6 7 8 9 10 11 12 13 14 15 16 17
000
FTAK31 PAJN 290915 AAA
TAFAKT
TAF AMD
PAKT 290915Z 2909/3006 14015G25KT P6SM -RA FEW008 SCT015 OVC025
      TEMPO 2909/2913 3SM -RA BR SCT006 OVC010
     FM291300 14015G25KT P6SM -RA FEW008 SCT015 OVC025
      TEMPO 2913/2917 3SM -RA BR SCT006 OVC010
     FM292200 14007KT P6SM VCSH BKN025 OVC035
     FM300200 13005KT P6SM -SHRA OVC025
      AMD LTD TO CLD VIS AND WIND 2906/2915=

USA.gov is the U.S. government's official web portal to all federal, state and local government web resources and services.